Regional Weather Roundup
Issued by NWS Albany, NY

Home | Current Version | Previous Version | Text Only | Print | Product List | Glossary On
Versions: 1 2 3 4 5 6 7 8 9 10 11 12 13 14 15 16 17 18 19 20 21 22 23 24 25 26 27 28 29 30 31 32 33 34 35 36 37 38 39 40 41 42 43 44 45 46 47 48 49 50
000
ASUS41 KALY 241710
RWRALY

NEW YORK STATE HOURLY WEATHER ROUNDUP
NATIONAL WEATHER SERVICE ALBANY NY
1200 PM EST MON NOV 24 2014

NOTE: "FAIR" INDICATES FEW OR NO CLOUDS BELOW 12,000 FEET WITH NO
SIGNIFICANT WEATHER AND/OR NO OBSTRUCTIONS TO VISIBILITY.

NYZ032-033-038>043-046>054-057>066-NYZ062>081-241800-
EAST


CITY           SKY/WX    TMP DP  RH WIND       PRES   REMARKS
ALBANY         PTSUNNY   65  59  81 S16G30    29.52F
GLENS FALLS    CLOUDY    62  58  86 SW6       29.51F
POUGHKEEPSIE   CLOUDY    68  59  73 VRB7      29.58F
NEWBURGH       PTSUNNY   66  61  82 SW12G23   29.60F
MONTGOMERY     MOSUNNY   70  58  65 SW18G26   29.56F
WHITE PLAINS     N/A     63  60  90 S8        29.63F FOG
ISLIP          FOG       60  59  96 S14G23    29.67F VSB 1/4
NEW YORK CITY  PTSUNNY   63  59  87 S12       29.63F
CENTRAL PARK   CLOUDY    67  59  75 VRB3      29.65F
$$

NYZ005>009-017-018-044>046-055-056-241800-
CENTRAL


CITY           SKY/WX    TMP DP  RH WIND       PRES   REMARKS
FULTON         PTSUNNY   69  52  54 S18G30    29.36F
SYRACUSE       MOSUNNY   71  52  50 S21G33    29.37F
ROME           CLOUDY    68  54  60 S15G28    29.43F
ELMIRA         MOSUNNY   69  53  56 S18G31    29.42F
BINGHAMTON     MOSUNNY   65  52  62 S18G32    29.46F
MONTICELLO     CLOUDY    59  57  94 S13G20    29.59F
$$

NYZ026>034-041>043-241800-
NORTH


CITY           SKY/WX    TMP DP  RH WIND       PRES   REMARKS
WATERTOWN      CLOUDY    69  50  50 S14G24    29.31F
FORT DRUM      NOT AVBL
MASSENA        MOSUNNY   68  52  56 S23G40    29.30F
SARANAC LAKE   SUNNY     62  53  72 SW18G26   29.39F
PLATTSBURGH    MOSUNNY   59  54  83 SE17      29.40F
$$

NYZ001>004-010>016-019>021-241800-
WEST


CITY           SKY/WX    TMP DP  RH WIND       PRES   REMARKS
NIAGARA FALLS  MOSUNNY   64  51  62 S23G35    29.22F
BUFFALO        MOSUNNY   64  50  60 S17G31    29.25F
DUNKIRK        MOSUNNY   66  50  56 S29G39    29.26F
JAMESTOWN      CLOUDY    61  48  63 S15G28    29.32F
WELLSVILLE     MOSUNNY   63  49  60 S18G29    29.38F
ROCHESTER      MOSUNNY   69  50  50 S20G33    29.29F
PENN YAN       MOSUNNY   66  51  58 S22G32    29.37F
$$

             KEY
       WCI = WIND CHILL INDEX
       VSB = VISIBILITY
       HX  = HEAT INDEX
$$


USA.gov is the U.S. government's official web portal to all federal, state and local government web resources and services.